This is the latest recevied weather packets stored in our database for station/object W4MLN-1. If no packets are shown the sender has not sent any weather packets the latest 10 day(s).
| Time | Temp. | Humidity | Pressure | Rain* | Wind** | Luminosity | Snow |
|---|---|---|---|---|---|---|---|
| 1777549497 | 11.11° C | 82% | 1012.5 hPa | 0 mm | - | 12 W/m² | - |
| 1777549197 | 11.11° C | 81% | 1012.2 hPa | 0 mm | - | 13 W/m² | - |
| 1777548896 | 11.11° C | 82% | 1012 hPa | 0 mm | - | 18 W/m² | - |
| 1777548596 | 11.11° C | 81% | 1011.8 hPa | 0 mm | - | 20 W/m² | - |
| 1777548295 | 11.11° C | 82% | 1011.7 hPa | 0 mm | - | 26 W/m² | - |
| 1777547995 | 11.11° C | 82% | 1011.7 hPa | 0 mm | - | 21 W/m² | - |
| 1777547696 | 11.11° C | 82% | 1011.7 hPa | 0 mm | - | 23 W/m² | - |
| 1777547385 | 11.11° C | 83% | 1011.5 hPa | 0 mm | - | 22 W/m² | - |
| 1777547082 | 10.56° C | 84% | 1011.4 hPa | 0 mm | - | 22 W/m² | - |
| 1777546783 | 11.11° C | 84% | 1011.2 hPa | 0 mm | - | 15 W/m² | - |
| 1777546482 | 11.11° C | 84% | 1011.2 hPa | 0 mm | - | 11 W/m² | - |
| 1777546168 | 11.11° C | 83% | 1011.1 hPa | 0 mm | - | 5 W/m² | - |
| 1777545867 | 11.11° C | 82% | 1011.1 hPa | 0 mm | - | 4 W/m² | - |
| 1777545568 | 11.11° C | 82% | 1011.2 hPa | 0 mm | - | 3 W/m² | - |
| 1777545268 | 11.11° C | 83% | 1011.2 hPa | 0 mm | - | 2 W/m² | - |
| 1777544968 | 11.11° C | 82% | 1010.8 hPa | 0 mm | - | 0 W/m² | - |
| 1777544668 | 11.11° C | 82% | 1010.6 hPa | 0 mm | - | 0 W/m² | - |
| 1777544368 | 11.11° C | 82% | 1010.6 hPa | 0 mm | - | 0 W/m² | - |
| 1777544068 | 11.11° C | 82% | 1010.9 hPa | 0 mm | - | 0 W/m² | - |
| 1777543756 | 11.11° C | 82% | 1011 hPa | 0 mm | - | 0 W/m² | - |
| 1777543456 | 11.11° C | 81% | 1010.9 hPa | 0 mm | - | 0 W/m² | - |
| 1777543154 | 11.11° C | 81% | 1010.9 hPa | 0 mm | - | 0 W/m² | - |
| 1777542853 | 11.11° C | 81% | 1010.7 hPa | 0 mm | - | 0 W/m² | - |
| 1777542544 | 11.11° C | 81% | 1010.7 hPa | 0 mm | - | 0 W/m² | - |
| 1777542245 | 11.11° C | 81% | 1010.7 hPa | 0 mm | - | 0 W/m² | - |
* Rain latest hour (hover to see other rain measurements)
** Current wind speed in m/s (hover to see current wind gust speed)